CAPE
0 0 0 0 0 0 2 0 0 2 2 0 0 2 1 2 0 0 0 3 3 2 3 1 1 4 2 0 4 7 0 16 12 2 222 104 0 0 0 0 0 0 0
0 0 0 0 0 0 1 0 0 0 0 2 3 1 3 2 4 0 1 2 1 2 0 2 1 1 1 3 2 8 4 9 7 0 293 78 0 0 0 0 0 0 0
0 0 0 0 0 0 0 0 3 0 0 2 0 0 3 5 4 6 5 4 4 4 4 1 0 1 0 0 4 3 6 14 20 25 14 0 0 0 0 0 0 0 0
0 0 0 0 0 0 0 0 0 0 0 1 2 0 2 1 0 0 1 3 3 0 4 4 1 2 1 0 0 5 3 5 19 21 29 0 0 0 0 0 0 0 0
0 0 0 0 0 0 0 0 0 0 0 1 4 0 0 5 0 0 2 3 3 0 1 2 3 8 21 16 3 0 9 10 26 10 41 9 0 0 0 0 0 0 0
0 0 0 0 0 0 0 0 0 0 0 2 3 0 0 3 4 3 0 3 1 1 1 1 2 5 3 8 6 7 7 6 7 35 37 1 0 0 0 0 0 0 0
0 0 0 0 0 0 0 0 0 0 0 4 1 1 0 5 1 4 0 1 0 2 1 1 1 1 4 3 3 3 3 0 2 2 23 1 0 0 0 0 0 0 0
0 0 0 0 0 0 0 0 0 0 0 6 1 0 1 1 6 1 0 1 1 1 1 2 1 4 2 4 5 2 1 1 1 0 0 12 0 0 0 0 0 0 0
0 0 0 0 0 0 0 0 0 0 0 3 1 0 0 0 0 0 0 1 1 1 1 3 2 1 1 3 1 4 9 15 1 0 0 0 0 0 0 0 0 0 0
0 0 0 0 0 0 2 0 0 0 0 5 0 0 0 0 0 0 0 0 2 2 0 0 3 2 2 2 0 3 18 2 0 0 0 0 0 0 0 0 0 0 0
0 0 0 0 0 0 0 0 0 3 0 0 0 0 0 0 0 0 0 0 1 1 1 1 4 2 1 1 1 1 0 1 3 2 1 2 1 1 0 0 0 12 20
4 1 0 0 0 0 0 0 0 0 0 0 0 0 0 0 0 0 0 0 0 1 1 2 2 3 1 0 1 0 0 1 2 3 3 2 3 3 2 2 0 0 0
7 4 0 0 0 0 0 3 1 0 0 0 0 0 0 0 0 0 0 0 0 0 0 5 0 1 2 5 4 0 1 1 1 2 3 3 2 0 1 0 0 0 0
10 5 1 0 0 2 3 0 0 0 0 0 0 0 0 0 0 0 0 0 0 0 0 6 0 0 1 2 6 8 4 4 1 2 2 2 0 0 0 0 0 0 0
1 10 13 0 7 0 0 0 2 1 0 0 0 0 0 0 0 0 0 0 0 0 0 0 0 0 1 2 2 3 6 5 4 4 1 0 0 0 0 0 0 0 0
1 4 4 6 6 4 0 0 4 0 0 0 0 0 0 0 0 0 0 0 0 0 0 0 0 0 0 1 2 2 2 4 6 5 4 4 4 2 3 4 3 2 2
2 3 7 4 7 2 11 0 3 0 0 0 0 0 0 0 0 0 0 0 0 0 0 0 0 0 0 0 0 1 1 2 4 5 3 6 4 0 0 2 0 0 0
7 5 5 2 3 8 1 17 7 3 5 0 0 0 0 0 0 0 0 0 0 0 0 0 0 0 0 0 0 0 0 0 0 1 1 3 3 2 1 2 0 0 0
27 8 11 2 9 3 10 25 4 5 13 9 3 1 0 0 0 0 0 0 0 1 0 0 0 0 0 0 0 0 0 0 1 1 0 0 0 0 1 0 0 0 0
44 28 1 0 1 5 10 9 7 12 17 21 7 0 0 0 0 0 0 0 0 0 4 0 0 0 0 0 0 0 0 0 0 1 1 0 0 0 0 0 0 0 0
15 0 0 0 6 6 7 4 7 20 14 5 1 0 0 0 0 0 0 0 0 0 3 2 0 0 0 0 1 1 0 0 0 0 1 0 0 0 0 0 0 0 0
18 0 0 0 13 0 1 2 19 5 0 2 0 0 0 0 0 0 0 0 0 4 0 4 4 0 0 1 1 2 1 1 0 0 0 0 0 1 0 1 0 0 0
1 0 0 0 2 0 7 6 5 2 4 2 0 0 0 0 0 1 2 0 3 1 0 1 4 4 2 1 2 2 5 6 4 4 2 0 0 0 0 0 1 1 0
0 0 9 11 1 2 3 0 2 1 3 1 0 0 1 0 1 5 0 2 6 0 0 3 4 1 4 4 5 6 0 0 0 1 1 0 1 0 0 0 1 0 0
1 8 4 4 1 0 0 0 3 6 4 0 0 1 2 1 6 1 3 7 0 1 2 2 2 1 6 2 3 0 0 0 0 0 0 1 2 1 0 0 0 0 0
4 3 3 0 0 0 1 5 2 5 1 0 2 3 2 9 6 6 6 2 3 2 1 2 2 3 1 0 1 0 0 0 1 0 0 0 0 1 0 0 0 0 0
CIN
0 0 0 0 0 0 0 0 0 0 -1 -2 0 -1 0 -1 0 0 0 0 0 0 0 0 -1 0 0 0 0 0 0 -1 0 0 -39 -104 0 0 0 0 0 0 0
0 0 0 0 0 0 -1 0 0 0 0 0 -1 -2 0 -1 -2 0 0 0 0 0 0 0 0 0 0 0 -1 0 0 0 -1 0 -43 -107 0 0 0 0 0 0 0
0 0 0 0 0 0 0 0 0 0 0 0 0 0 0 0 -1 0 -1 0 0 0 0 0 0 0 0 -1 0 0 0 0 0 0 0 0 0 0 0 0 0 0 0
0 0 0 0 0 0 0 0 0 0 0 0 -1 0 -1 0 0 0 0 0 0 0 0 0 0 0 0 0 0 0 0 0 0 0 0 0 0 0 0 0 0 0 0
0 0 0 0 0 0 0 0 0 0 0 -1 0 0 0 -1 0 -1 0 0 0 0 0 0 0 0 0 0 0 0 0 0 0 0 0 -3 0 0 0 0 0 0 0
0 0 0 0 0 0 0 0 0 0 0 0 0 0 0 0 0 -3 0 0 0 0 0 0 0 0 0 0 0 0 0 0 -4 0 0 0 0 0 0 0 0 0 0
0 0 0 0 0 -1 0 0 0 0 0 -1 0 -1 0 0 0 -2 0 0 0 0 0 0 0 0 0 0 0 0 0 0 0 0 0 0 0 0 0 0 0 0 0
0 0 0 0 0 0 -1 0 0 0 0 -1 -1 0 0 -2 -1 -1 0 0 0 0 0 0 0 0 0 0 0 0 0 0 0 0 0 -4 0 0 0 0 0 0 0
0 0 0 0 0 0 -1 0 -2 0 0 0 0 -1 0 0 0 0 0 0 0 0 0 0 0 0 0 0 0 -2 0 -1 -1 -2 0 -1 0 0 -1 0 -1 0 0
0 0 0 0 0 -1 -2 0 0 0 0 0 0 0 0 0 0 0 0 0 0 0 0 0 0 0 0 0 0 -3 0 -4 0 0 0 0 0 0 0 0 0 -1 0
0 0 0 0 0 0 0 0 -2 -4 0 0 0 0 0 0 0 0 0 0 0 0 0 0 0 0 0 0 0 0 0 0 0 0 0 0 0 0 0 0 0 -39 -11
-1 -1 0 0 0 0 0 0 0 0 0 0 0 0 0 0 0 0 0 0 0 0 0 0 0 0 0 0 0 0 0 0 0 0 0 0 0 0 0 0 0 0 0
-2 -2 0 0 0 0 0 -2 -3 0 0 0 0 0 0 0 0 0 0 0 0 0 0 0 0 0 0 0 0 0 0 0 0 0 0 0 0 0 0 0 0 0 0
-2 -1 -1 0 0 -1 -3 0 0 0 0 0 0 0 0 0 0 0 0 0 0 0 0 -1 0 0 0 0 0 0 0 0 0 0 0 0 0 0 0 0 0 0 0
-3 -4 -1 0 -1 -1 0 0 -3 -4 0 0 0 0 0 0 0 0 0 0 0 0 0 0 0 0 0 0 0 0 0 0 0 0 -1 0 0 0 0 0 0 0 0
-4 -12 -4 -1 -2 -2 0 0 -1 0 0 0 0 0 0 0 0 0 0 0 0 0 0 0 0 0 0 0 0 0 0 0 0 0 0 -1 0 0 0 -1 -2 -3 0
-2 -15 -4 -7 -1 -4 -1 -3 -1 -1 0 0 0 0 0 0 0 0 0 0 0 0 0 0 0 0 0 0 0 0 0 0 0 0 0 0 0 -1 0 0 -1 -2 -2
-10 -6 -9 -11 -3 -1 -3 -1 0 -3 -1 0 0 0 0 0 0 0 0 0 0 -4 0 0 -1 0 0 0 0 0 0 0 0 0 0 0 -1 0 0 0 0 0 0
-4 -4 -13 -3 -8 -4 -3 0 -1 -4 0 -1 -1 -2 0 0 0 0 0 0 0 -2 0 0 0 0 0 0 0 0 0 0 0 0 0 0 0 0 0 0 0 0 0
-4 -4 -1 -3 -6 -12 -1 -1 -1 -3 0 0 0 0 0 0 0 0 0 0 0 0 -9 0 0 -1 0 0 0 0 0 0 0 0 0 0 0 0 0 0 0 0 0
-1 -16 0 -1 0 -1 -1 -1 -3 0 0 -4 -6 0 0 0 0 0 0 0 0 -1 -1 -6 0 0 -2 -1 -1 0 0 0 0 0 0 0 0 0 0 0 0 0 0
-10 -4 0 0 0 0 -10 -8 0 -2 -1 -2 0 0 0 0 0 0 0 -1 -1 -1 -1 -2 -2 0 0 0 0 -1 -2 -1 -1 0 0 0 0 0 -1 -1 0 0 0
-10 0 0 0 0 0 -2 -4 -1 -5 -1 -3 0 0 0 -1 0 -2 -1 -1 0 -2 0 -1 0 -1 -3 -2 0 0 0 0 0 0 0 0 0 0 0 0 0 0 0
0 0 -1 -2 -2 -2 -3 0 -3 -4 -4 -3 0 0 -1 0 -1 -1 -2 -1 0 0 0 0 -1 0 -2 0 0 0 0 0 0 0 0 0 0 0 0 0 0 0 0
0 -5 -2 -1 -2 -1 0 -2 -4 -1 -1 0 0 -3 -2 -2 -1 -2 -1 0 -2 -1 -1 -1 -1 -2 -1 0 0 0 0 0 0 0 0 0 -1 0 0 0 0 0 0
-9 -3 -2 -2 0 0 -5 -4 -2 -3 -2 -2 -3 -2 -3 -1 -1 -1 -1 -1 0 0 -1 -1 -1 0 -1 -3 0 0 0 0 0 0 0 0 0 0 0 0 0 0 0
Wind_Speed
28 28 27 29 29 31 31 33 35 36 37 37 38 41 42 43 43 45 46 47 49 50 50 50 51 52 53 53 53 51 52 48 53 55 49 37 28 26 21 19 17 17 15
27 27 27 28 29 31 32 34 35 36 38 38 38 41 43 44 45 47 47 51 52 53 54 55 55 53 52 52 51 53 52 50 51 57 49 42 34 26 23 22 20 19 17
27 28 28 29 30 31 33 35 35 37 38 38 39 42 43 45 46 45 51 54 55 56 56 57 57 56 57 53 52 52 52 50 49 50 51 38 35 28 26 26 22 20 18
27 27 28 29 30 30 33 35 36 38 39 40 40 41 44 45 46 48 54 56 57 58 58 57 57 57 57 56 54 54 52 52 50 50 47 41 38 35 30 29 27 23 20
26 27 28 29 30 30 34 35 38 39 39 40 41 42 44 45 45 50 56 57 60 60 59 58 58 58 60 60 56 54 51 51 49 47 46 45 42 36 34 30 29 26 24
25 26 27 29 31 31 33 36 38 40 40 41 41 43 46 45 47 50 57 57 58 58 61 61 60 60 58 59 57 58 53 51 50 46 45 42 38 38 34 34 30 27 28
25 27 29 30 32 33 33 36 39 40 41 41 42 42 44 46 49 51 56 55 57 57 59 59 60 57 60 58 55 55 48 49 52 48 44 39 37 37 33 33 32 29 28
26 28 30 31 33 34 34 37 38 39 41 41 42 44 44 45 48 51 56 53 54 56 55 56 58 57 57 55 47 40 39 39 43 45 47 42 36 35 34 32 31 29 26
27 29 31 32 33 34 33 37 36 38 39 40 42 43 45 45 48 51 54 51 54 56 53 54 54 55 54 45 33 36 39 39 34 34 36 39 30 28 28 28 27 26 25
28 29 30 31 33 33 33 34 34 34 37 38 43 42 44 45 47 50 52 49 54 53 52 51 50 52 52 45 32 29 35 34 30 21 21 23 21 19 20 22 24 28 24
28 29 31 31 32 32 33 33 30 32 35 38 41 41 42 42 45 47 50 48 48 50 49 48 48 49 47 43 35 24 20 15 12 12 11 12 14 14 15 15 18 20 25
29 29 31 29 30 31 30 31 30 33 34 37 40 40 39 39 44 45 47 46 45 47 46 44 45 44 44 38 33 25 16 13 10 7 10 11 13 14 17 14 15 13 15
29 29 29 29 28 29 32 32 33 33 35 38 40 40 41 39 42 43 44 45 43 45 43 43 42 40 36 37 31 23 18 12 7 3 5 6 8 8 11 13 13 14 16
28 28 28 30 31 30 30 34 34 35 36 39 38 40 41 42 42 43 43 42 41 43 42 40 37 33 31 32 30 23 19 12 9 9 4 6 8 11 12 13 14 17 18
28 29 29 32 31 32 31 33 32 33 34 38 35 35 40 42 44 44 45 44 41 42 40 38 35 31 29 29 27 23 19 19 16 12 9 10 9 8 9 12 13 15 18
24 27 29 30 32 31 32 34 30 30 32 34 28 28 33 36 44 42 44 41 39 36 38 37 33 31 28 26 25 24 22 21 17 13 12 10 10 10 12 11 12 14 15
21 24 25 27 30 31 32 33 37 36 30 35 31 25 26 35 46 43 41 37 32 36 37 35 33 32 29 26 25 24 21 20 18 15 13 12 11 11 12 12 12 13 14
18 20 19 24 26 31 33 32 34 37 37 40 34 25 20 32 46 40 38 36 35 33 35 34 31 31 30 27 25 24 22 21 19 17 16 15 14 13 14 13 13 14 14
16 16 17 20 24 27 28 31 34 35 34 33 34 33 23 39 42 37 37 35 34 34 33 34 34 28 28 27 26 25 23 22 21 19 18 17 16 15 14 14 13 14 13
17 13 16 20 25 26 28 31 33 32 30 32 35 35 35 40 38 36 35 34 33 33 31 32 32 32 27 24 24 24 23 22 21 20 19 18 18 17 16 16 15 15 15
17 19 17 22 24 25 29 32 32 27 31 34 35 34 36 38 36 36 34 34 32 31 31 31 30 29 27 26 25 21 20 19 20 20 19 19 18 17 17 16 17 16 16
20 18 21 25 23 27 28 27 27 32 33 31 31 33 37 34 35 35 34 33 32 31 31 31 30 29 28 25 24 23 22 22 21 21 20 19 19 19 18 18 17 17 18
19 20 23 21 23 27 28 30 32 33 32 30 32 32 34 34 35 34 34 33 32 31 31 30 30 29 28 28 25 24 24 24 23 23 23 23 22 21 20 20 19 19 17
22 21 22 23 27 28 29 31 33 33 31 32 33 31 32 34 34 34 33 32 32 32 31 30 29 29 30 28 28 27 25 25 26 26 25 25 24 22 22 21 19 19 18
21 21 24 27 28 29 31 33 32 31 32 33 31 32 33 33 34 34 33 32 32 32 31 30 30 30 30 29 30 27 28 29 28 27 26 25 25 24 22 21 21 21 20
19 22 25 28 29 30 30 31 31 32 32 32 32 33 34 32 33 34 33 33 33 31 31 31 31 30 30 30 29 31 29 27 26 25 26 25 25 23 22 22 22 20 20
Wind_Direction
342 342 345 343 344 342 342 341 339 338 337 335 335 333 331 330 329 328 327 325 319 315 312 308 303 300 295 290 287 284 279 279 278 278 277 277 266 267 265 265 264 265 267
343 343 345 344 345 343 342 341 341 339 338 335 336 334 332 331 328 326 325 324 321 317 312 308 304 301 296 292 287 283 280 277 275 274 273 268 268 261 261 260 266 268 270
341 342 344 343 343 345 344 343 343 341 339 338 338 335 334 333 331 330 327 323 321 317 314 310 305 301 296 293 288 283 280 278 275 274 269 270 269 258 258 265 264 267 273
342 343 345 345 346 347 346 344 343 342 340 338 339 338 336 333 332 331 328 325 323 319 315 311 307 302 296 292 288 282 278 276 274 271 266 266 260 261 254 253 262 264 268
344 345 346 347 346 349 346 344 343 342 340 339 338 338 337 335 333 331 330 327 324 321 318 314 310 304 296 291 286 281 277 273 271 268 266 260 260 254 247 252 257 260 265
346 347 347 347 345 347 347 345 344 342 340 338 339 338 337 337 335 333 332 329 328 325 322 317 313 307 301 293 285 279 272 269 268 266 262 261 255 252 252 250 249 251 257
348 347 346 345 345 345 346 346 344 343 340 341 341 341 340 338 336 334 332 333 331 329 326 323 317 313 303 296 286 279 270 265 261 264 265 253 250 254 249 247 244 246 255
347 346 346 345 344 344 346 346 346 347 344 343 344 342 340 341 339 337 333 336 337 335 331 328 321 315 310 295 286 281 274 269 263 257 257 260 257 250 245 241 243 244 254
347 346 345 345 344 345 347 348 347 347 346 347 346 344 342 341 340 339 338 338 338 338 333 332 327 325 320 314 298 287 276 271 270 259 254 256 251 253 248 243 239 233 242
346 346 347 347 345 347 347 349 351 351 351 350 348 347 346 344 344 342 340 344 341 334 335 334 331 330 331 328 308 294 282 273 271 255 246 243 240 242 242 245 244 241 241
347 345 346 347 346 349 350 351 355 355 354 353 352 353 352 351 349 348 344 349 350 339 340 336 340 337 340 343 340 316 292 278 260 236 226 233 232 234 239 244 248 243 246
345 346 347 350 352 353 354 354 356 354 355 353 353 355 357 357 353 351 348 352 356 343 338 334 338 340 347 346 351 341 320 289 269 251 223 231 229 240 242 257 247 265 261
347 350 354 355 356 355 353 353 352 353 351 350 351 352 355 359 358 353 352 351 359 345 343 340 338 342 345 356 351 344 345 326 307 304 262 225 230 242 261 261 277 266 265
349 352 357 355 353 355 354 352 350 349 349 348 349 349 351 354 357 354 351 354 0 355 346 345 340 337 341 348 351 350 350 335 345 349 294 289 277 265 279 288 276 275 266
348 347 351 351 353 354 355 354 353 353 352 347 349 352 350 350 352 350 336 341 353 343 346 343 339 335 337 341 344 347 343 350 354 338 313 305 303 297 288 285 281 274 276
351 348 348 349 351 354 354 353 357 355 353 351 350 352 354 354 348 347 331 326 346 8 346 345 337 334 331 331 333 338 339 349 343 343 343 328 312 294 288 311 295 288 287
346 346 347 349 351 351 352 354 351 352 354 351 352 352 355 351 340 332 326 320 356 0 346 341 340 337 331 325 326 330 328 329 330 329 319 305 316 319 309 312 306 297 303
341 345 345 349 350 349 350 352 354 353 351 348 352 356 359 353 335 317 334 336 340 354 357 341 332 336 333 329 325 328 321 321 317 316 318 310 315 314 297 301 304 300 303
338 341 347 349 351 351 352 353 355 355 355 355 355 357 4 346 335 332 339 335 333 340 346 349 351 326 327 331 329 326 324 324 322 319 314 308 309 302 299 305 304 299 305
330 343 348 348 349 350 352 353 355 357 359 359 355 354 353 345 335 337 335 331 328 330 342 339 342 343 326 318 320 324 323 323 324 323 322 318 313 308 299 292 287 295 290
342 348 347 347 349 352 352 352 354 359 359 357 356 355 353 347 339 334 331 330 326 325 330 339 331 334 327 324 325 307 303 300 310 313 312 309 304 304 304 299 283 290 287
353 353 349 345 351 352 352 354 358 357 358 360 1 357 347 352 346 337 334 327 324 325 327 325 333 332 329 318 313 308 307 310 308 301 292 291 290 287 287 286 286 285 283
357 349 348 354 355 354 354 355 355 355 358 1 0 360 355 351 345 338 334 329 324 325 322 317 323 334 332 322 312 304 302 308 309 302 299 293 291 293 291 291 294 294 302
351 352 353 356 353 354 354 353 353 354 358 359 358 2 360 349 341 336 331 324 326 325 315 316 316 323 327 330 324 315 324 319 306 298 302 294 293 294 297 299 302 304 304
357 357 355 353 353 352 351 351 353 355 355 355 359 359 357 352 342 336 328 323 324 316 312 313 313 310 328 324 326 342 320 304 301 298 297 295 297 296 301 303 304 304 304
12 5 359 356 354 353 354 354 354 354 354 355 356 355 353 355 346 333 323 322 313 310 308 311 307 308 314 317 329 308 292 283 292 304 301 293 292 299 299 299 298 304 304